Location: Feydey
(46.3431°N, 7.0106°E)
Time: 05:58:13
(UTC+00:00)

Cosmos 1328 - Pass Details

Date: 20 June 2021
Orbit: 527 x 555 km, 82.5° (Epoch: 28 July)

Event Time Altitude Azimuth Distance (km) Brightness Sun altitude
Exits shadow 22:30:54 35° 112° (ESE) 868 4.5 -18.8°
Maximum altitude 22:31:25 37° 92° (E) 838 4.6 -18.8°
Drops below altitude 10° 22:35:03 10° 25° (NNE) 1,785 7.1 -19.0°
Sets 22:37:18 0° 17° (NNE) 2,683 8.4 -19.1°
